Location: Camp Crooked Creek
(37.9149°N, 85.6607°W)
Time: 22:57:23
(UTC-04:00)

Lacrosse 4 - Visible Passes

Search period start: 25 October 2014 00:00
Search period end: 03 November 2014 23:00
Orbit: 673 x 680 km, 68.0° (Epoch: 25 February)

Date Brightness Start Highest point End Pass type
(mag) Time Alt. Az. Time Alt. Az. Time Alt. Az.
25 Oct 1.6 20:26:51 10° NNW 20:31:40 76° ENE 20:33:50 32° SE visible
25 Oct 4.8 22:11:27 10° W 22:11:44 10° WSW 22:12:00 10° WSW visible
26 Oct 2.8 19:22:17 10° N 19:26:17 26° NE 19:30:16 10° ESE visible
26 Oct 3.3 21:02:46 10° NW 21:07:04 34° WSW 21:10:18 16° SSW visible
27 Oct 1.6 19:57:16 10° NNW 20:02:04 74° ENE 20:06:50 10° SSE visible
27 Oct 4.9 21:41:22 10° W 21:42:09 10° WSW 21:42:55 10° WSW visible
28 Oct 3.4 20:33:09 10° NW 20:37:29 35° WSW 20:41:47 10° S visible
29 Oct 1.7 19:27:40 10° NNW 19:32:28 73° ENE 19:37:14 10° SSE visible
29 Oct 5.0 21:11:29 10° W 21:12:33 11° WSW 21:13:37 10° WSW visible
30 Oct 3.4 20:03:31 10° NW 20:07:53 35° WSW 20:12:13 10° S visible
31 Oct 5.1 20:41:40 10° W 20:42:58 11° WSW 20:44:15 10° WSW visible
01 Nov 3.5 19:33:54 10° NW 19:38:17 36° WSW 19:42:38 10° S visible
02 Nov 5.3 19:11:54 10° W 19:13:22 11° WSW 19:14:50 10° WSW visible
03 Nov 3.6 18:04:16 10° NW 18:08:41 37° WSW 18:13:03 10° S visible
